This is the latest recevied weather packets stored in our database for station/object Sauldorf. If no packets are shown the sender has not sent any weather packets the latest 10 day(s).
| Time | Temp. | Humidity | Pressure | Rain* | Wind** | Luminosity | Snow |
|---|---|---|---|---|---|---|---|
| 1777818730 | 22.22° C | 44% | 1011.5 hPa | 0 mm | - | - | - |
| 1777816930 | 23.33° C | 40% | 1011.5 hPa | 0 mm | - | - | - |
| 1777815131 | 24.44° C | 36% | 1011.7 hPa | 0 mm | - | - | - |
| 1777813330 | 23.89° C | 39% | 1012.1 hPa | 0 mm | - | - | - |
| 1777811536 | 23.33° C | 38% | 1012.5 hPa | 0 mm | - | - | - |
| 1777809730 | 23.89° C | 39% | 1012.7 hPa | 0 mm | - | - | - |
| 1777807932 | 22.78° C | 35% | 1012.9 hPa | 0 mm | - | - | - |
| 1777806130 | 22.22° C | 44% | 1013.3 hPa | 0 mm | - | - | - |
| 1777804332 | 23.33° C | 40% | 1013.4 hPa | 0 mm | - | - | - |
| 1777802532 | 22.78° C | 45% | 1013.6 hPa | 0 mm | - | - | - |
| 1777800731 | 21.67° C | 47% | 1014.1 hPa | 0 mm | - | - | - |
| 1777798930 | 21.11° C | 47% | 1014.2 hPa | 0 mm | - | - | - |
| 1777797132 | 19.44° C | 55% | 1014.5 hPa | 0 mm | - | - | - |
| 1777795332 | 17.22° C | 64% | 1014.5 hPa | 0 mm | - | - | - |
| 1777793531 | 15.56° C | 68% | 1014.6 hPa | 0 mm | - | - | - |
| 1777791731 | 15° C | 68% | 1014.4 hPa | 0 mm | - | - | - |
| 1777789931 | 12.22° C | 78% | 1014.4 hPa | 0 mm | - | - | - |
| 1777788131 | 10.56° C | 83% | 1014.5 hPa | 0 mm | - | - | - |
| 1777786331 | 8.89° C | 86% | 1014.4 hPa | 0 mm | - | - | - |
| 1777784533 | 7.22° C | 84% | 1014.4 hPa | 0 mm | - | - | - |
| 1777782731 | 7.22° C | 81% | 1014.3 hPa | 0 mm | - | - | - |
| 1777780930 | 7.78° C | 79% | 1014.3 hPa | 0 mm | - | - | - |
| 1777779131 | 8.33° C | 79% | 1014.6 hPa | 0 mm | - | - | - |
| 1777777331 | 8.33° C | 80% | 1014.6 hPa | 0 mm | - | - | - |
| 1777775531 | 8.33° C | 80% | 1014.6 hPa | 0 mm | - | - | - |
* Rain since midnight (hover to see other rain measurements)
** Current wind speed in m/s (hover to see current wind gust speed)